Weather in Bobrik

Russia / Bryansk Oblast     52°26′57″N   34°31′13″E
temp.,
°C
wind,
m/s
gust,
m/s
humid.,
%
clouds,
%
prec.,
mm/h
press.,
hPa
HPBL,
m
28 september, tue
tue2800:00+7n399472 0.0 1024302
03:00+7n3791100 0.0 1024249
06:00+7n3895100 0.0 1024375
09:00+8nne389486 0.2 1025426
12:00+9ne3686100 0.3 1027590
15:00+9ene5783100 0.6 1028629
18:00+8ne4883100 0.0 1029588
21:00+6ne4987100 0.0 1031509
29 september, wed
wed2900:00+6ene4883100 0.0 1032514
03:00+6ene4783100 0.0 1033454
06:00+6ene3780100 0.0 1034323
09:00+7ene47745 0.0 1034546
12:00+10e45535 0.0 10341115
15:00+11ene34505 0.0 10341249
18:00+8ne226786 0.0 103434
21:00+6ene2273100 0.0 103439
30 september, thu
thu3000:00+5e2275100 0.0 103520
03:00+4ene117836 0.0 103510
06:00+3ne228043 0.0 103512
09:00+7ene23665 0.0 1036216
12:00+11e23555 0.0 1035869
15:00+13ene22535 0.0 10341195
18:00+9ene22720 0.0 103419
21:00+7e23800 0.0 103557
1 october, fri
fri100:00+6ese23840 0.0 103639
03:00+5ese22850 0.0 103613
06:00+4e22870 0.0 103612
09:00+8ese22720 0.0 1036200
12:00+12se22580 0.0 1036852
15:00+14sse22540 0.0 10351144
18:00+10se11690 0.0 103410
21:00+8ese22750 0.0 103511
2 october, sat
sat200:00+7se22764 0.0 103514
03:00+6se22795 0.0 103520
06:00+5se22825 0.0 103427
09:00+9sse24695 0.0 1034190
12:00+13sse34545 0.0 1033843
15:00+15sse34515 0.0 10321268
18:00+11ese227112 0.0 103231
21:00+9ese377488 0.0 1032168